Regional Weather Roundup
Issued by NWS

Home | Current Version | Previous Version | Text Only | Print | Product List | Glossary On
Versions: 1 2 3 4 5 6 7 8 9 10 11 12 13 14 15 16 17 18 19 20 21 22 23 24 25 26 27 28 29 30 31 32 33 34 35 36 37 38 39 40 41 42 43 44 45 46 47 48 49 50
000
ASUS42 KKEY 261210
RWRKEY

FLORIDA REGIONAL WEATHER ROUNDUP FOR THE FLORIDA KEYS
NATIONAL WEATHER SERVICE KEY WEST FLORIDA
800 AM EDT FRI MAY 26 2017

...SOUTH FLORIDA AND THE KEYS...

CITY           SKY/WX    TMP DP  RH WIND       PRES   REMARKS
FORT MYERS     PTSUNNY   72  63  73 NE7       30.05R
SW REGIONAL AP PTSUNNY   70  62  76 NE8       30.06R
NAPLES         CLOUDY    74  63  68 NE9       30.04R
MIAMI          PTSUNNY   81  75  82 NW5       30.04R
WEST KENDALL   MOSUNNY   81  75  82 N3        30.03R
HOMESTEAD      MOSUNNY   78  78 100 CALM      30.02R
MARATHON       SUNNY     84  79  85 CALM      30.02R HX  96
BOCA CHICA NAS MOSUNNY   82  79  90 CALM      30.03R HX  92
KEY WEST INTL  MOSUNNY   83  76  79 CALM      30.03R HX  91

...INTERNATIONAL WEATHER...

CITY           SKY/WX    TMP DP  RH WIND       PRES   REMARKS
NASSAU BAHAMAS NOT AVBL
CANCUN MEXICO  PTSUNNY   82  81  94 E7        29.96R HX  95
COZUMEL MEXICO PTSUNNY   79  77  94 CALM      29.94R

ADJACENT COASTAL WATERS...

STATION/POSITION TIME  SKY/WX   TEMP    WIND        PRES    WAVE
                                AIR SEA DIR/SP/G            HT/PER
                 (UTC)          (F)     (DEG/KT/KT) (MB)    (FT/S)
PULASKI SHOAL LI 1200            83     210/  2/  2 1016.8R
SAND KEY         1150            82     170/  3/  4 1017.3R
LONG KEY         1100            82 83  220/  4/  4 1016.1R
MOLASSES REEF    1100            81 81     CALM     1016.4R
FOWEY ROCKS      1100            81 80  220/  2/  2 1016.9R
Buoy 42097       1200                                 N/A     3/ 7

$$



USA.gov is the U.S. government's official web portal to all federal, state and local government web resources and services.